Portsmouth, NH

6:42 AM EDT on April 26, 2017 (GMT -0400)
Pease International Tradeport

Weather History for KPSM - November, 2013

Change the Weather History Date:

Friday, November 1, 2013

  Actual Average Record
Temperature  
Mean Temperature 65 °F -  
Max Temperature 71 °F 52 °F 77 °F (1974)
Min Temperature 57 °F 35 °F 20 °F (1983)
Growing Degree Days 15 (Base 50)    
Moisture  
Dew Point 56 °F    
Average Humidity 73    
Maximum Humidity 99    
Minimum Humidity 53    
Precipitation  
Precipitation 0.01 in - - ()
Sea Level Pressure  
Sea Level Pressure 29.52 in    
Wind  
Wind Speed 14 mph (SSW)    
Max Wind Speed 23 mph    
Max Gust Speed 37 mph    
Visibility 10 miles    
Events Rain    
Averages and records for this station are not official NWS values.
T = Trace of Precipitation, MM = Missing Value Source: NWS Daily Summary

Daily Weather History Graph

Daily Weather History Graph

Search for Another Location

Airport or City:

Trip Planner

Search our weather history database for the weather conditions in past years. The results will help you decide how hot, cold, wet, or windy it might be!

Date:

Astronomy

Nov. 01, 2013 Rise Set
Actual Time 7:18 AM EDT 5:34 PM EDT
Civil Twilight 6:48 AM EDT 6:04 PM EDT
Nautical Twilight 6:15 AM EDT 6:38 PM EDT
Astronomical Twilight 5:41 AM EDT 7:11 PM EDT
Moon 5:04 AM EDT (11/1) 4:28 PM EDT (11/1)
Length of Visible Light 11h 15m
Length of Day
10h 16m
Waning Crescent, 4% of the Moon is Illuminated
Nov 1
Waning Crescent
Nov 3
New
Nov 10
First Quarter
Nov 17
Full
Nov 25
Last Quarter

Hourly Weather History & Observations

Time (EDT) Temp. Dew Point Humidity Pressure Visibility Wind Dir Wind Speed Gust Speed Precip Events Conditions
12:58 AM 59.9 °F 58.6 °F 96% 29.73 in 7.0 mi South 9.2 mph - 0.00 in Rain Light Rain
1:24 AM 60.8 °F 59.0 °F 94% 29.69 in 6.0 mi South 9.2 mph - N/A Rain Light Rain
1:58 AM 60.3 °F 59.9 °F 99% 29.68 in 6.0 mi South 11.5 mph - 0.01 in Rain Light Rain
2:58 AM 62.4 °F 60.3 °F 93% 29.64 in 7.0 mi SSW 18.4 mph 25.3 mph 0.00 in Rain Light Rain
3:21 AM 62.6 °F 59.0 °F 88% 29.62 in 8.0 mi SSW 19.6 mph 28.8 mph N/A Rain Light Rain
3:38 AM 62.6 °F 59.0 °F 88% 29.61 in 10.0 mi SSW 17.3 mph 28.8 mph N/A   Overcast
3:58 AM 62.8 °F 56.1 °F 79% 29.60 in 10.0 mi SSW 12.7 mph 24.2 mph 0.00 in   Overcast
4:58 AM 63.7 °F 56.8 °F 78% 29.59 in 10.0 mi SSW 15.0 mph 23.0 mph N/A   Overcast
5:58 AM 63.7 °F 57.4 °F 80% 29.57 in 10.0 mi SSW 11.5 mph - N/A   Overcast
6:58 AM 64.4 °F 57.7 °F 79% 29.53 in 10.0 mi South 11.5 mph 19.6 mph N/A   Overcast
7:58 AM 66.2 °F 57.9 °F 75% 29.52 in 10.0 mi SSW 12.7 mph 26.5 mph N/A   Overcast
8:58 AM 68.9 °F 58.6 °F 70% 29.51 in 10.0 mi SSW 23.0 mph 35.7 mph N/A   Overcast
9:12 AM 69.8 °F 59.0 °F 68% 29.50 in 10.0 mi SSW 19.6 mph 33.4 mph N/A   Light Drizzle
9:28 AM 69.8 °F 59.0 °F 68% 29.49 in 10.0 mi SSW 18.4 mph 32.2 mph N/A   Overcast
9:45 AM 69.8 °F 59.0 °F 68% 29.47 in 10.0 mi SSW 21.9 mph 31.1 mph N/A Rain Light Rain
9:58 AM 68.9 °F 59.9 °F 73% 29.48 in 10.0 mi SSW 20.7 mph 33.4 mph 0.00 in   Overcast
10:58 AM 70.9 °F 57.7 °F 63% 29.46 in 10.0 mi SSW 16.1 mph 31.1 mph N/A   Overcast
11:58 AM 71.2 °F 59.2 °F 66% 29.41 in 10.0 mi SSW 21.9 mph 31.1 mph N/A   Overcast
12:02 PM 71.6 °F 59.0 °F 64% 29.41 in 10.0 mi SSW 18.4 mph 32.2 mph N/A Rain Light Rain
12:58 PM 69.8 °F 57.9 °F 66% 29.44 in 10.0 mi WSW 13.8 mph 31.1 mph 0.00 in   Overcast
1:48 PM 68.0 °F 57.2 °F 68% 29.38 in 10.0 mi SSW 18.4 mph 24.2 mph N/A Rain Light Rain
1:58 PM 68.0 °F 57.4 °F 69% 29.40 in 10.0 mi SSW 16.1 mph 27.6 mph 0.00 in Rain Light Rain
2:15 PM 68.0 °F 53.6 °F 60% 29.38 in 10.0 mi SSW 19.6 mph 25.3 mph N/A   Overcast
2:58 PM 68.9 °F 50.9 °F 53% 29.41 in 10.0 mi SW 23.0 mph 36.8 mph 0.00 in   Mostly Cloudy
3:58 PM 68.0 °F 51.4 °F 55% 29.42 in 10.0 mi SW 15.0 mph 25.3 mph N/A   Scattered Clouds
4:58 PM 67.1 °F 50.9 °F 56% 29.43 in 10.0 mi SW 17.3 mph 24.2 mph N/A   Scattered Clouds
5:58 PM 64.6 °F 50.9 °F 61% 29.44 in 10.0 mi SW 10.4 mph - N/A   Scattered Clouds
6:58 PM 63.5 °F 51.4 °F 65% 29.47 in 10.0 mi SW 11.5 mph 20.7 mph N/A   Partly Cloudy
7:58 PM 63.1 °F 51.6 °F 66% 29.50 in 10.0 mi SW 9.2 mph - N/A   Mostly Cloudy
8:58 PM 61.7 °F 52.0 °F 70% 29.53 in 10.0 mi SW 10.4 mph - N/A   Partly Cloudy
9:58 PM 60.6 °F 52.0 °F 73% 29.57 in 10.0 mi SW 8.1 mph - N/A   Partly Cloudy
10:58 PM 59.0 °F 51.3 °F 75% 29.59 in 10.0 mi WSW 5.8 mph - N/A   Partly Cloudy
11:58 PM 57.6 °F 50.7 °F 78% 29.62 in 10.0 mi West 4.6 mph - N/A   Partly Cloudy